Location: St. Louis
(38.6270°N, 90.1994°W)
Time: 08:40:30
(UTC-06:00)

SR - Pass Details

Date: 02 December 2021
Orbit: 582 x 872 km, 66.7° (Epoch: 21 January)

Event Time Altitude Azimuth Distance (km) Brightness Sun altitude
Rises 07:09:59 0° 352° (N) 2,819 ? 0.7°
Reaches altitude 10° 07:14:06 10° 31° (NNE) 1,945 ? 1.4°
Maximum altitude 07:15:09 11° 45° (NE) 1,907 ? 1.6°
Drops below altitude 10° 07:16:13 10° 59° (ENE) 1,966 ? 1.8°
Sets 07:20:28 0° 98° (E) 2,932 ? 2.5°
